Location: Ar Ranvel
(48.3000°N, 4.8833°W)
Time: 13:49:36
(UTC+00:00)

ATLAS 3B R/B - Pass Details

Date: 16 June 2021
Orbit: 1003 x 1191 km, 63.8° (Epoch: 21 July)

Event Time Altitude Azimuth Distance (km) Brightness Sun altitude
Exits shadow 21:18:02 - 165° (SSE) 3,213 4.7 -7.5°
Reaches altitude 10° 21:19:34 10° 157° (SSE) 2,778 4.3 -7.7°
Maximum altitude 21:24:22 22° 109° (ESE) 2,058 3.7 -8.2°
Drops below altitude 10° 21:29:16 10° 62° (ENE) 2,849 4.8 -8.7°
Sets 21:32:31 0° 48° (NE) 3,836 5.7 -9.1°
